Total_Precipitation_Accumulation
0.00 0.00 0.00 0.00 0.00 0.00 0.00 0.00 0.00 0.00 0.00 0.00 0.00 0.00 0.00 0.00 0.00 0.00 0.00 0.00 0.00 0.00 0.00 0.01 0.02 0.03 0.05 0.08 0.10 0.11 0.11 0.11 0.12 0.12 0.13 0.13 0.13 0.13 0.14 0.15 0.16 0.17 0.18
0.00 0.00 0.00 0.00 0.00 0.00 0.00 0.00 0.00 0.00 0.00 0.00 0.00 0.00 0.00 0.00 0.00 0.00 0.00 0.00 0.00 0.00 0.00 0.00 0.01 0.02 0.05 0.07 0.10 0.12 0.12 0.13 0.13 0.13 0.14 0.14 0.15 0.15 0.15 0.16 0.17 0.18 0.19
0.00 0.00 0.00 0.00 0.00 0.00 0.00 0.00 0.00 0.00 0.00 0.00 0.00 0.00 0.00 0.00 0.00 0.00 0.00 0.00 0.00 0.00 0.00 0.00 0.01 0.01 0.02 0.04 0.06 0.09 0.11 0.13 0.15 0.16 0.17 0.18 0.18 0.18 0.18 0.19 0.20 0.21 0.21
0.00 0.00 0.00 0.00 0.00 0.00 0.00 0.00 0.00 0.00 0.00 0.00 0.00 0.00 0.00 0.00 0.00 0.00 0.00 0.00 0.00 0.00 0.00 0.00 0.01 0.01 0.01 0.01 0.03 0.05 0.07 0.10 0.12 0.14 0.16 0.19 0.21 0.22 0.24 0.26 0.26 0.27 0.27
0.01 0.00 0.00 0.00 0.00 0.00 0.00 0.00 0.00 0.00 0.00 0.00 0.00 0.00 0.00 0.00 0.00 0.00 0.00 0.00 0.00 0.00 0.00 0.00 0.00 0.00 0.00 0.01 0.01 0.03 0.05 0.08 0.09 0.10 0.12 0.14 0.17 0.20 0.23 0.27 0.31 0.33 0.36
0.01 0.00 0.00 0.00 0.00 0.00 0.00 0.00 0.00 0.00 0.00 0.00 0.00 0.00 0.00 0.00 0.00 0.00 0.00 0.00 0.00 0.00 0.00 0.00 0.00 0.00 0.00 0.01 0.01 0.02 0.03 0.05 0.07 0.08 0.10 0.12 0.14 0.17 0.20 0.24 0.28 0.33 0.40
0.02 0.01 0.00 0.00 0.00 0.00 0.00 0.00 0.00 0.00 0.00 0.00 0.00 0.01 0.00 0.00 0.00 0.00 0.00 0.00 0.00 0.00 0.00 0.00 0.00 0.00 0.01 0.01 0.01 0.01 0.02 0.02 0.04 0.07 0.09 0.11 0.14 0.18 0.21 0.24 0.28 0.32 0.38
0.01 0.00 0.00 0.00 0.00 0.00 0.00 0.00 0.00 0.00 0.01 0.00 0.01 0.03 0.02 0.00 0.00 0.00 0.00 0.00 0.00 0.00 0.00 0.00 0.00 0.00 0.01 0.01 0.01 0.01 0.01 0.01 0.02 0.07 0.12 0.16 0.19 0.22 0.25 0.29 0.32 0.34 0.37
0.01 0.00 0.00 0.00 0.00 0.00 0.00 0.00 0.00 0.01 0.02 0.01 0.01 0.04 0.05 0.04 0.02 0.01 0.00 0.00 0.00 0.00 0.00 0.00 0.00 0.00 0.00 0.00 0.00 0.00 0.01 0.02 0.03 0.04 0.10 0.17 0.23 0.27 0.31 0.35 0.37 0.41 0.45
0.01 0.00 0.00 0.00 0.00 0.00 0.00 0.01 0.01 0.02 0.03 0.03 0.02 0.03 0.06 0.07 0.09 0.06 0.02 0.00 0.00 0.00 0.00 0.00 0.00 0.00 0.00 0.00 0.00 0.01 0.02 0.04 0.06 0.06 0.10 0.20 0.30 0.38 0.46 0.51 0.55 0.60 0.61
0.00 0.00 0.00 0.00 0.00 0.01 0.01 0.02 0.03 0.04 0.05 0.06 0.06 0.06 0.07 0.08 0.10 0.11 0.06 0.02 0.01 0.00 0.00 0.00 0.00 0.00 0.00 0.00 0.01 0.02 0.04 0.06 0.08 0.11 0.18 0.30 0.40 0.51 0.64 0.74 0.80 0.82 0.80
0.00 0.00 0.00 0.00 0.00 0.01 0.01 0.02 0.04 0.06 0.07 0.09 0.11 0.11 0.12 0.12 0.10 0.11 0.08 0.04 0.03 0.01 0.01 0.00 0.00 0.00 0.00 0.01 0.01 0.02 0.03 0.04 0.07 0.12 0.22 0.35 0.44 0.55 0.67 0.79 0.88 0.92 0.94
0.00 0.00 0.00 0.00 0.00 0.01 0.01 0.02 0.04 0.06 0.09 0.12 0.14 0.15 0.16 0.15 0.15 0.16 0.16 0.11 0.07 0.03 0.02 0.01 0.00 0.00 0.01 0.02 0.02 0.02 0.02 0.02 0.05 0.08 0.15 0.29 0.37 0.40 0.45 0.54 0.69 0.81 0.90
0.00 0.00 0.00 0.00 0.00 0.01 0.01 0.02 0.05 0.06 0.09 0.11 0.13 0.14 0.16 0.14 0.16 0.17 0.19 0.20 0.14 0.05 0.02 0.01 0.00 0.01 0.02 0.02 0.02 0.02 0.01 0.01 0.02 0.05 0.09 0.14 0.20 0.24 0.28 0.34 0.43 0.53 0.63
0.00 0.00 0.00 0.00 0.00 0.00 0.00 0.01 0.02 0.03 0.04 0.06 0.08 0.10 0.12 0.12 0.13 0.13 0.16 0.23 0.26 0.17 0.06 0.03 0.02 0.01 0.02 0.02 0.02 0.04 0.03 0.03 0.04 0.06 0.08 0.09 0.11 0.15 0.19 0.24 0.30 0.38 0.45
0.00 0.00 0.00 0.00 0.00 0.00 0.00 0.00 0.00 0.01 0.01 0.02 0.04 0.07 0.09 0.10 0.11 0.13 0.13 0.15 0.22 0.26 0.15 0.04 0.04 0.03 0.05 0.04 0.04 0.07 0.07 0.07 0.09 0.10 0.11 0.13 0.15 0.16 0.19 0.23 0.28 0.33 0.37
0.00 0.00 0.00 0.00 0.00 0.00 0.00 0.00 0.00 0.00 0.00 0.01 0.03 0.05 0.07 0.09 0.11 0.11 0.12 0.13 0.15 0.21 0.20 0.07 0.05 0.06 0.07 0.05 0.04 0.09 0.09 0.09 0.09 0.12 0.16 0.19 0.23 0.25 0.26 0.28 0.29 0.31 0.34
0.00 0.00 0.00 0.00 0.00 0.00 0.00 0.00 0.00 0.00 0.00 0.00 0.01 0.02 0.04 0.06 0.08 0.11 0.13 0.13 0.13 0.16 0.23 0.17 0.06 0.05 0.06 0.07 0.08 0.10 0.12 0.14 0.13 0.14 0.19 0.25 0.31 0.34 0.33 0.32 0.31 0.31 0.33
0.00 0.00 0.00 0.00 0.00 0.00 0.00 0.00 0.00 0.00 0.00 0.00 0.01 0.01 0.01 0.02 0.02 0.05 0.08 0.11 0.13 0.17 0.26 0.30 0.16 0.12 0.12 0.11 0.13 0.11 0.13 0.16 0.15 0.16 0.20 0.23 0.26 0.30 0.32 0.34 0.34 0.34 0.34
0.00 0.00 0.00 0.00 0.00 0.00 0.00 0.00 0.00 0.00 0.00 0.00 0.00 0.01 0.01 0.01 0.02 0.03 0.06 0.10 0.17 0.21 0.25 0.31 0.28 0.20 0.18 0.14 0.16 0.15 0.16 0.15 0.17 0.20 0.22 0.24 0.26 0.28 0.29 0.29 0.30 0.30 0.30
0.00 0.00 0.00 0.00 0.00 0.00 0.00 0.00 0.00 0.00 0.00 0.00 0.00 0.00 0.00 0.00 0.01 0.04 0.09 0.13 0.17 0.23 0.31 0.39 0.37 0.29 0.23 0.20 0.19 0.20 0.25 0.24 0.23 0.21 0.23 0.23 0.27 0.32 0.34 0.38 0.39 0.39 0.39
0.00 0.00 0.00 0.00 0.00 0.00 0.00 0.00 0.00 0.00 0.00 0.00 0.00 0.00 0.00 0.00 0.01 0.05 0.08 0.12 0.21 0.30 0.39 0.45 0.43 0.36 0.27 0.27 0.31 0.38 0.45 0.49 0.42 0.27 0.33 0.39 0.44 0.51 0.52 0.53 0.58 0.60 0.60
0.00 0.00 0.00 0.00 0.00 0.00 0.00 0.00 0.00 0.00 0.00 0.00 0.00 0.00 0.00 0.01 0.03 0.04 0.05 0.10 0.15 0.23 0.32 0.35 0.31 0.24 0.22 0.24 0.37 0.46 0.50 0.54 0.49 0.38 0.45 0.52 0.49 0.51 0.51 0.54 0.62 0.62 0.58
0.00 0.00 0.00 0.00 0.00 0.00 0.00 0.00 0.00 0.00 0.00 0.00 0.00 0.00 0.01 0.02 0.03 0.07 0.13 0.17 0.12 0.09 0.10 0.12 0.13 0.14 0.18 0.24 0.36 0.50 0.58 0.62 0.52 0.42 0.41 0.48 0.41 0.39 0.38 0.40 0.47 0.49 0.46
0.00 0.00 0.00 0.00 0.00 0.00 0.00 0.00 0.00 0.00 0.00 0.00 0.00 0.01 0.03 0.03 0.05 0.16 0.24 0.24 0.13 0.04 0.04 0.07 0.12 0.13 0.15 0.18 0.26 0.47 0.66 0.74 0.61 0.37 0.31 0.38 0.38 0.38 0.36 0.33 0.36 0.42 0.42
0.00 0.00 0.00 0.00 0.00 0.00 0.00 0.00 0.01 0.01 0.01 0.02 0.02 0.01 0.02 0.04 0.11 0.22 0.23 0.20 0.11 0.05 0.08 0.07 0.06 0.05 0.04 0.06 0.16 0.36 0.74 1.04 0.81 0.52 0.32 0.41 0.45 0.50 0.57 0.35 0.31 0.35 0.35